Vorticity
nan nan nan nan nan nan nan nan nan nan nan nan nan nan nan nan nan nan nan nan nan nan nan nan nan nan nan nan nan nan nan nan nan nan nan nan nan nan nan nan nan nan nan nan nan nan nan
nan 6 7 7 7 5 7 9 7 5 5 7 8 7 10 10 8 6 7 6 7 6 5 6 7 16 14 4 16 11 4 4 5 7 8 5 7 7 8 8 8 6 8 11 12 7 nan
nan 11 6 6 8 8 5 8 7 6 6 5 7 9 9 10 9 7 7 7 7 7 6 6 11 14 10 10 6 7 4 5 6 6 6 6 7 6 8 8 9 10 10 8 7 8 nan
nan 7 12 9 6 6 8 7 5 8 7 6 6 8 9 10 11 9 7 7 8 9 11 13 11 11 6 12 5 5 7 7 10 7 6 8 9 8 6 7 9 11 9 7 9 7 nan
nan 5 5 11 11 5 7 6 7 9 8 7 6 6 8 9 11 10 9 7 10 17 18 12 8 8 8 10 10 12 8 7 9 9 8 9 9 8 9 9 5 10 10 8 9 8 nan
nan 8 6 4 10 11 5 5 8 9 8 7 6 5 8 9 10 12 12 16 14 13 10 6 6 6 12 6 8 10 9 10 8 9 8 8 7 7 6 10 9 7 7 8 8 9 nan
nan 8 7 6 5 9 11 6 6 7 9 8 6 7 7 8 11 14 12 15 11 10 8 4 0 3 6 10 10 8 13 9 6 7 8 8 8 9 8 7 8 7 7 7 9 9 nan
nan 9 7 7 6 5 10 12 7 7 7 7 7 7 5 8 16 14 8 7 10 6 12 12 5 6 8 10 8 12 11 7 8 7 5 8 9 10 12 11 6 4 5 8 8 13 nan
nan 9 9 7 7 7 6 10 11 7 6 7 8 6 4 13 16 10 9 8 5 8 11 13 16 9 14 9 4 11 7 5 9 8 8 6 7 9 10 8 8 6 8 10 6 8 nan
nan 9 9 8 7 6 7 6 12 11 7 6 8 6 5 11 11 8 8 8 11 9 8 14 11 11 13 5 13 12 6 6 11 11 6 4 9 8 8 8 8 7 11 9 10 10 nan
nan 10 10 10 8 7 7 9 8 12 10 6 7 8 11 6 5 9 6 8 13 7 7 14 12 13 13 7 9 11 7 11 13 10 6 9 9 9 8 10 7 9 9 8 11 10 nan
nan 11 10 10 9 8 7 8 7 11 10 8 6 7 8 7 9 7 5 10 10 10 9 9 12 10 5 8 7 13 8 7 11 8 8 11 8 10 9 11 10 9 7 7 10 9 nan
nan 11 11 10 10 9 8 7 7 7 11 8 7 6 5 5 9 10 9 10 9 5 7 13 9 10 8 10 6 10 11 6 6 7 8 8 9 8 11 7 8 8 7 8 7 8 nan
nan 10 11 12 11 10 9 8 8 9 12 7 7 7 6 6 4 9 11 11 7 8 4 7 13 13 10 4 8 11 12 3 3 8 13 9 9 11 8 10 9 8 7 10 11 8 nan
nan 11 11 11 12 11 10 8 8 10 10 12 4 3 8 13 6 7 12 5 8 7 9 8 8 8 10 9 11 9 13 11 6 4 6 6 9 9 10 11 12 9 10 9 9 9 nan
nan 10 11 12 12 12 10 9 9 9 11 7 2 10 11 11 9 5 12 10 1 1 6 11 10 11 11 8 9 10 6 9 11 8 8 9 8 8 11 6 9 13 9 6 9 11 nan
nan 14 12 12 12 13 11 9 9 9 12 2 -1 10 17 11 6 11 10 15 2 -3 9 7 9 10 12 12 8 10 5 7 14 10 8 9 9 9 9 13 7 7 4 8 10 9 nan
nan 16 15 15 13 14 13 11 8 10 10 -1 1 10 14 12 4 9 15 0 13 9 -1 8 8 10 13 9 10 13 10 7 14 10 7 5 8 12 6 8 11 10 11 8 10 8 nan
nan 13 12 13 16 15 15 12 9 11 -1 -6 7 12 14 10 6 6 18 2 -1 18 4 6 8 8 9 11 10 10 9 12 11 6 10 9 6 8 6 8 13 12 10 7 9 14 nan
nan 12 13 11 13 15 17 13 10 10 -3 -8 8 10 12 12 10 11 9 17 1 -2 11 10 7 8 8 10 13 11 10 14 11 5 8 11 10 12 8 6 9 11 10 7 5 8 nan
nan 13 12 12 14 16 14 15 10 11 -3 -11 6 10 14 20 12 10 7 11 11 1 9 4 4 9 5 7 10 12 11 11 12 11 9 9 8 8 11 14 10 9 14 10 3 8 nan
nan 16 12 12 13 13 15 17 9 11 -3 -14 6 9 8 19 21 8 6 14 15 7 1 5 8 12 3 3 7 8 7 8 8 13 9 8 14 11 7 12 12 7 11 11 6 6 nan
nan 20 13 12 13 14 17 17 9 8 -12 -8 7 13 17 15 18 12 11 8 9 8 1 8 12 5 18 9 5 10 11 14 12 10 8 12 11 8 9 8 7 15 17 9 6 8 nan
nan 18 14 13 14 13 17 18 9 9 -17 -10 10 12 16 15 15 13 13 11 15 2 6 9 10 7 4 15 12 8 12 16 10 8 12 9 6 10 13 10 8 8 12 16 12 5 nan
nan 15 14 14 13 16 21 14 10 11 -10 -13 8 9 15 17 12 16 16 8 9 17 3 11 8 12 13 8 9 5 7 11 10 13 12 10 9 11 12 6 8 15 12 14 14 8 nan
nan 24 15 13 13 16 25 11 10 13 -11 -13 7 8 18 13 11 23 15 12 7 5 14 8 9 7 10 13 15 13 9 9 9 8 9 9 11 12 11 13 8 5 12 11 8 15 nan
nan 20 17 15 13 18 21 10 13 12 -7 -13 5 8 10 11 8 18 20 11 12 3 6 12 12 5 8 9 11 12 12 9 15 9 5 4 13 12 9 8 10 15 15 11 5 16 nan
nan 16 16 17 17 21 14 10 12 9 -7 -9 6 13 11 7 8 8 11 17 17 13 3 2 9 9 10 13 9 12 12 9 9 9 14 9 6 6 7 10 17 11 11 11 5 16 nan
nan nan nan nan nan nan nan nan nan nan nan nan nan nan nan nan nan nan nan nan nan nan nan nan nan nan nan nan nan nan nan nan nan nan nan nan nan nan nan nan nan nan nan nan nan nan nan
CAPE
8 7 10 18 22 23 4 18 18 15 8 2 0 0 2 2 0 0 0 0 0 0 0 0 1 1 0 0 0 0 0 0 0 0 0 0 0 0 0 0 0 0 0 0 0 96 74
23 21 20 12 21 16 18 6 19 15 11 0 0 0 0 0 3 0 0 0 0 0 0 0 1 0 0 0 0 0 0 0 0 0 0 0 0 0 0 0 0 0 2 98 102 174 157
42 32 32 28 36 25 17 23 9 9 14 9 10 10 2 0 0 0 0 0 0 0 0 0 1 0 0 0 0 0 0 0 0 0 0 0 0 0 0 0 0 0 66 83 209 178 324
28 31 51 34 31 28 19 19 22 3 17 13 10 0 2 1 0 0 0 0 0 0 0 0 0 0 0 0 0 0 0 0 0 0 0 0 0 0 0 0 0 0 0 0 128 162 63
28 26 31 50 32 31 27 30 6 14 24 16 18 1 0 0 0 0 0 0 0 0 0 0 0 0 0 0 0 0 0 0 0 0 0 0 0 0 0 0 0 0 0 4 214 169 104
48 36 39 55 28 34 32 29 32 14 16 18 13 7 0 0 0 0 0 0 0 0 0 0 0 0 0 0 0 0 0 0 0 0 0 0 0 0 0 0 8 0 2 0 0 0 61
32 55 58 41 49 25 47 33 33 26 19 27 18 16 0 0 0 0 0 0 0 0 0 0 0 0 0 0 0 0 0 0 0 0 0 0 0 0 0 0 0 0 1 0 0 0 9
67 63 65 62 58 50 29 50 42 30 24 25 23 20 9 0 0 0 0 0 0 0 0 0 0 0 0 0 0 0 0 0 0 0 0 0 0 0 0 0 0 0 0 0 0 0 0
48 60 66 57 60 51 65 38 42 34 31 21 20 13 4 0 0 0 0 0 0 0 0 0 0 0 0 0 0 0 0 0 0 0 0 0 0 0 0 0 0 0 0 0 0 0 0
60 59 62 61 64 63 54 80 34 39 36 26 22 13 1 10 0 0 0 0 0 0 0 0 0 0 0 0 0 0 0 0 0 0 0 0 0 0 0 0 0 0 0 0 0 0 0
59 69 74 66 56 47 45 62 99 52 40 35 24 22 1 9 0 0 0 0 0 0 0 0 0 0 0 0 0 0 0 0 0 0 0 0 0 0 0 0 0 0 0 0 0 0 0
82 70 64 86 65 54 41 39 85 78 48 42 26 30 13 5 4 0 0 0 0 1 0 0 0 0 0 0 0 0 0 0 0 0 0 0 0 0 0 0 0 0 0 0 0 0 0
104 90 80 73 89 69 57 34 31 76 68 47 37 34 39 37 11 0 0 1 7 5 0 0 0 0 0 0 0 0 0 0 0 0 0 0 0 0 0 0 0 0 0 0 0 0 0
92 93 100 92 83 86 71 56 25 44 88 54 46 39 26 21 11 0 14 14 13 0 0 0 0 0 0 0 0 0 0 0 0 0 0 0 0 0 0 0 0 0 0 0 0 0 0
92 93 91 87 94 85 85 66 41 35 85 58 55 41 17 14 3 0 23 7 6 0 0 0 0 0 0 0 0 0 0 0 0 0 0 0 0 0 0 0 0 0 0 0 0 0 0
98 98 79 90 79 88 83 78 42 42 83 57 28 57 35 18 28 7 20 7 3 0 0 0 0 0 0 0 0 0 0 0 0 0 0 0 0 0 0 0 0 0 0 0 0 0 0
121 109 96 87 85 66 78 81 62 39 87 80 30 33 9 22 71 26 16 15 1 0 0 0 0 0 0 0 0 0 0 0 0 0 0 0 0 0 0 0 0 0 0 0 0 0 0
139 132 120 101 91 79 79 67 64 52 55 98 19 13 0 31 18 26 17 8 4 0 0 0 0 0 0 0 0 0 0 0 0 0 0 0 0 0 0 0 0 0 0 0 6 0 0
75 52 159 122 124 86 86 56 45 38 68 11 9 22 29 15 32 4 4 11 1 0 0 0 0 0 0 0 0 0 0 0 0 0 0 0 0 0 0 0 0 0 0 0 0 0 0
105 115 120 89 104 123 102 53 28 44 80 9 37 32 87 79 0 0 9 11 8 0 0 0 0 4 3 0 0 0 0 0 0 0 0 0 0 0 0 0 0 0 0 0 0 0 0
84 121 117 153 225 119 118 53 22 60 83 26 62 33 9 23 18 0 0 0 5 2 0 0 0 2 2 0 0 0 0 0 0 0 0 0 0 0 0 0 0 0 0 0 0 0 0
116 104 99 157 192 122 142 44 22 68 100 51 12 37 17 25 3 27 29 8 0 0 0 0 0 0 0 2 0 0 0 0 0 0 0 0 0 0 0 0 0 0 0 0 0 0 0
101 108 91 109 132 152 119 34 23 74 83 26 11 0 1 0 8 2 6 7 8 3 0 0 0 0 0 0 1 0 0 0 0 0 0 0 0 0 0 0 0 0 0 0 0 0 0
119 139 130 103 143 109 82 28 34 79 24 9 0 0 9 0 17 0 7 21 18 2 0 0 0 0 0 1 0 0 0 0 0 0 0 0 0 0 0 0 0 0 0 0 0 0 0
125 133 150 107 136 60 80 24 48 68 63 0 0 0 24 43 34 9 22 2 42 25 1 0 0 0 0 21 10 1 0 0 0 0 0 0 0 0 0 0 0 0 0 0 0 0 0
145 89 95 125 114 21 60 20 38 64 71 1 0 0 15 47 49 25 19 11 9 18 3 0 0 0 0 0 7 0 4 0 0 0 0 0 0 0 0 0 0 0 0 0 0 0 0
79 84 141 141 57 32 49 23 45 67 52 1 0 0 45 40 13 40 63 22 12 15 0 0 0 0 0 0 0 0 0 0 0 0 0 0 0 0 0 0 0 0 0 0 0 0 0
174 188 174 82 43 64 25 31 43 52 29 0 0 0 7 17 1 9 0 20 6 2 0 0 0 0 0 0 0 0 0 0 0 0 0 0 0 0 0 0 0 0 0 0 0 0 0
157 116 73 54 39 29 22 39 46 45 24 0 0 2 0 0 8 24 3 0 0 16 0 0 0 0 0 0 0 0 0 0 0 4 0 1 0 0 0 0 0 0 0 0 0 0 0